Location: Boursonne
(49.2024°N, 3.0468°E)
Time: 18:58:29
(UTC+00:00)

COSMOS 2428 - Pass Details

Date: 03 March 2021
Orbit: 845 x 858 km, 70.9° (Epoch: 14 April)

Event Time Altitude Azimuth Distance (km) Brightness Sun altitude
Rises 21:01:00 0° 226° (SW) 3,397 6.0 -33.2°
Reaches altitude 10° 21:03:32 10° 232° (SW) 2,466 5.3 -33.5°
Enters shadow 21:07:09 36° 259° (WSW) 1,329 3.9 -34.0°
Exits shadow 21:13:52 13° 19° (NNE) 2,263 5.1 -34.9°
Drops below altitude 10° 21:14:30 10° 21° (NNE) 2,485 5.3 -35.0°
Sets 21:17:04 0° 27° (NNE) 3,426 6.0 -35.3°
